Timeline UpdatesTrip UpdatesNews PostsPvt PostsTravel TipsAdmin PostsConv PostsFollowed PostsChat RequestsBlog PostsPNR Posts

Disclaimer
Search
 
 
Wed Sep 3, 2014 07:39:12 ISTHomeTrainsΣChainsAtlasPNRForumGalleryNewsFAQTripsMembersLoginFeedback
No Recent News for this Train
Other Trains in the News **new
Latest...
.
Sun Sep 02, 2012 (03:07PM)
⇐ Return Journey: Train# 11025

11026/Pune - Bhusaval Express

Time-Table HAS CHANGED.
Sep 01 (1:30PM)
Change Departure Station:
Change Arrival Station:
Post a Train Travel TipPost a Train Travel Tip **new
Post a Comment/Question/Picture/VideoPost a Comment/Question/Picture/Video
Inaugural Run
Sun Jul 01, 2012
Pantry/Catering
✕ NO Pantry Car
✓ Catering Avbl
RSA - Rake Sharing
12157/12158 Hutatma Express
Rake/Coach Composition
Loco-SLR-UR-C1-D1-D2-D3-D4-D5-D6-D7-UR-UR-UR-UR-UR-SLR
Loco
KYN WCAM-2P/3
News    PNR    Forum    Time-Table    Availability    Fare Chart    Map    Arr/Dep History    Trips    Gallery    ΣChains    X/O    Timeline    
Travel Time: 6h 20m    9 halts    Distance: 297 km    Avg Speed: 46 km/hr
Type: Mail/Express
Zone: CR/Central
Departs @ 12:45
Platform# 2
SMTWTFS
Lonavala/LNL 
Arrives @ 19:05
Platform# 2
SMTWTFS
Manmad Junction/MMR 

9 halts. 47 intermediate Stations between Lonavala and Manmad Junction

Hide intermediate Stations  Show Old Time-Table

#CodeStation NameX/OArrivesAvgDepartsAvgHaltPFDay#KmSpeedElevZoneAddress
1PUNEPune Junction (6)  -11:45-21-63.658556mCRPune 411001, Maharashtra
1.1SVJRShivajinagar (2)  11:48-11:48-  1-61.2 58549mCRPune 411005, Maharashtra
1.2KKKhadki (3)X  11:51-11:51-  1-57.6 58562mCRPune 411003, Maharashtra
1.3DAPDDapodi (2)  11:53-11:53-  1-55.5 58558mCRPune 411012, Maharashtra
1.4KSWDKasarwadi (2)  11:57-11:57-  1-52.2 58558mCRPune 411034, Maharashtra
1.5PMPPimpri (2)X  12:00-12:00-  1-49.5 58570mCRPune 411018, Maharashtra
2CCHChinchwad (4)  12:02-12:04-2m31-47.373573mCRPune 411033, Maharashtra
2.1AKRDAkurdi (2)X  12:07-12:07-  1-44.1 73583mCRPune 411035, Maharashtra
2.2DEHRDehu Road (4)  12:11-12:11-  1-39.2 73611mCRDehu 412101, Maharashtra
2.3BGWBegdewadi (2)  12:14-12:14-  1-35.7 73594mCRBegdewadi, Maharashtra
2.4BGWIBegdaewadi  12:14-12:14-  1-35.6 73594mCRTalegaon, Maharashtra
2.5SLRWShelarwadi (2)  12:14-12:14-  1-35.3 73594mCRShelarwadi Dist. Pune, Maharashtra
2.6GRWDGhorawadi (2)  12:16-12:16-  1-32.6 73596mCRGhorawadi, Maharashtra
2.7TGNTalegaon (2)O  12:19-12:19-  1-29.5 73619mCRTalegaon Dabhade 410501, Maharashtra
2.8VDNVadgaon (2)  12:22-12:22-  1-25.5 73623mCRVadgaon, Maharashtra
2.9KNHEKanhe (2)  12:26-12:26-  1-20.5 73626mCRKanhe, Maharashtra
2.10KMSTKamshet (2)  12:30-12:30-  1-15.9 73607mCRDist. Pune 410405, Maharashtra
2.11MVLMalavli (2)  12:37-12:37-  1-7.1 73616mCRMalavli 410405, Maharashtra
3LNL»Lonavala (3)»  12:43-12:45-2m210.035623mCRLonavala 410401, Maharashtra
3.1KADKhandala (3)  12:51-12:51-  13.7 35545mCRKhandala 410301, Maharashtra
3.2MHLCMonkey Hill (2)X  13:00-13:00-  19.0 35414mCRKhandala, Maharashtra
3.3NAGCNagargali  13:07-13:07-  112.7 35354mCRKhopoli, Maharashtra
3.4NNCNNagnath Cabin (1)  13:12-13:12-  115.9 35289mCRDolavali Khopoli (Chinchavali Marge), Maharashtra
3.5TKWThakurvadi  13:13-13:13-  116.2 35281mCRKhandala, Maharashtra
3.6PDIPalasdhari (4)  13:29-13:29-  125.7 3567mCRDist Raigad, Maharashtra
4KJTKarjat Junction (4)  13:36 13:34-13:37 13:35-1m3128.74257mCRKarjat, Maharashtra
5CHOKChowk  13:51-13:52-1m1139.75144mCRChowk, Maharashtra
6MHPEMohape  14:01-14:02-1m1147.35035mCRMohape Railway Station, Maharashtra
7CKHSChikhale (1)  14:09-14:10-1m1153.24913mCRKolkhe, Maharashtra
8PNVLPanvel Junction (7)  14:15-14:20-5m7157.23610mCRPanvel, Maharashtra
8.1KLMCKalamboli (3)  14:28-14:28-  162.3 364mCR, Maharashtra
8.2KLMGKalamboli Goods (2)  14:29-14:29-  162.9 364mCRNavi Mumbai, Maharashtra
8.3NVRDNavade Road (2)  14:32-14:32-  164.7 366mCRGhotkamp Koyana vele., Maharashtra
8.4TPNDTaloje Panchnand (3)X  14:38-14:38-  168.1 3610mCRNavi Mumbai, Maharashtra
8.5NIIJNilaje (3)  14:52-14:52-  176.7 369mCRNilaje, Maharashtra
8.6DTVLDativli (2)  14:59-14:59-  180.9 367mCRKalyan Shilphata Rd, Maharashtra
8.7DIDombivli (5)X  15:09-15:09-  186.4 3611mCRDombivli, Maharashtra
8.8THKThakurli (2)  15:11-15:11-  187.9 3614mCRThakurli, Maharashtra
9KYNKalyan Junction (8)  15:15 15:17-15:20-5 3m4191.44310mCRKalyan 421301, Maharashtra
9.1SHADShahad (2)  15:25-15:25-  194.7 4312mCRUlhasnagar, Maharashtra
9.2ABYAmbivli (2)  15:29-15:29-  197.7 4322mCRAmbivli, Maharashtra
9.3TLATitwala (3)  15:36-15:36-  1102.5 4317mCRTitwala, Maharashtra
9.4KDVKhadavli (3)  15:46-15:46-  1110.1 4323mCRKhadavli, Maharashtra
9.5VSDVasind (2)  15:57-15:57-  1117.7 4332mCRVasind, Maharashtra
9.6ASOAsangaon (3)  16:05-16:05-  1123.6 4377mCRDist. Thane, Maharashtra
9.7ATGAtgaon (2)X  16:19-16:19-  1133.4 43147mCRAtgaon, Maharashtra
9.8THSThansitO  16:27-16:27-  1139.3 43184mCRNational Highway 3, Maharashtra
9.9KEKhardi (2)  16:36-16:36-  1145.5 43232mCRKhardi, Maharashtra
9.10OMBOombermaliX  16:45-16:45-  1152.1 43248mCROombermali, Maharashtra
9.11KSRAKasara (4)X  16:55-16:55-  1158.9 43290mCRDist. Thane 421602, Maharashtra
9.12TGR3Block & Catch Siding Cabin 3O  17:00-17:00-  1162.6 43365mCRNH-3, Maharashtra
9.13TGR2Block & Catch Siding Cabin 2X  17:05-17:05-  1166.1 43473mCRNational Highway 3, Maharashtra
10IGPIgatpuri (4)  17:15-17:20-5m21173.282589mCRIgatpuri 422403, Maharashtra
10.1GOGhoti (2)  17:26-17:26-  1181.4 82581mCRGhoti, Maharashtra
10.2PIPadli (1)X  17:32-17:32-  1189.7 82591mCRNational Highway 3, Maharashtra
10.3AVAsvali (2)X  17:38-17:38-  1198.2 82578mCRAsvali, Maharashtra
10.4LTLahavit (1)X  17:47-17:47-  1210.6 82587mCRWadhiware, Maharashtra
11DVLDevlali (3)X  17:58 17:53-18:00 17:55-2m11218.226561mCRDist. Nashik 422401, Maharashtra
12NKNasik Road (3)X  18:08-18:10-2m11223.979563mCRNashik 422101, Maharashtra
12.1ODHAOdha (2)X  18:19-18:19-  1235.5 79571mCRDist. Nashik, Maharashtra
12.2KWKhervadi (2)X  18:24-18:24-  1242.5 79553mCRKherwadi, Maharashtra
12.3KBSNKasbe Sukene (3)  18:29-18:29-  1249.3 79548mCRKasbe Sukene, Maharashtra
12.4NRNiphad (3)  18:34-18:34-  1255.3 79550mCRNashik, Maharashtra
12.5UGNUgaon (2)  18:39-18:39-  1262.3 79568mCRUgaon, Maharashtra
12.6LSLasalgaon (3)  18:46-18:46-  1272.2 79592mCRLasalgaon, Maharashtra
12.7SUMSummit (2)  18:56-18:56-  1284.3 79632mCRSummit, Maharashtra
13MMR•Manmad Junction (6)•X  19:05-19:10-5m21296.794580mCRManmad 423104, Maharashtra
13.1PNVPanevadi (2)  19:14-19:14-  1302.4 94561mCRPanevadi, Maharashtra
13.2HSLHisvahal (2)  19:19-19:19-  1310.1 94540mCRHisvahal, Maharashtra
13.3PJNPanjhan (2)  19:22-19:22-  1315.6 94514mCRPanjhan, Maharashtra
13.4NGNNandgaon (3)X  19:26-19:26-  1322.0 94476mCRNandgaon, Maharashtra
13.5PKEPimpar Khed (2)X  19:33-19:33-  1332.9 94462mCRPimpar Khed, Maharashtra
13.6NINaydongri (2)X  19:39-19:39-  1342.7 94427mCRNaydongri, Maharashtra
13.7RHNERohini (2)  19:42-19:42-  1347.3 94422mCRRohini, Maharashtra
13.8HPRHirapur (2)X  19:48-19:48-  1356.3 94373mCRHirapur, Maharashtra
14CSNChalisgaon Junction (3)  19:53-19:55-2m21364.2127352mCRChalisgaon 424101, Maharashtra
14.1VGLVaghli (2)  19:59-19:59-  1373.6 127331mCRVaghli, Maharashtra
15KJKajgaon (3)20:04-20:05-1m--1383.367297mCRKajgaon, Maharashtra
15.1NGDNagardevla (2)X  20:11-20:11-  1390.1 67280mCRNagardevla, Maharashtra
15.2GAAGalan (2)X  20:19-20:19-  1398.5 67282mCRGalan, Maharashtra
16PCPachora Junction (4)X  20:28-20:30-2m--1409.087264mCRPachora 424201, Maharashtra
16.1PHQPardhande (2)  20:35-20:35-  1416.5 87243mCRPardhande, Maharashtra
16.2MYJMaheji (2)X  20:40-20:40-  1423.8 87247mCRJalgaon, Maharashtra
16.3MWDMhasavad (3)  20:48-20:48-  1435.7 87220mCRMhasavad, Maharashtra
16.4SSShirsoli (2)X  20:55-20:55-  1445.0 87211mCRShirsoli, Maharashtra
17JLJalgaon Junction (4)X  21:03-21:05-2m31456.832213mCRJalgaon 425001, Maharashtra
17.1TRWTarsodX  21:14-21:14-  1461.5 32206mCRAsoda - Tarsod Road, Maharashtra
17.2BDIBhadli (2)  21:26-21:26-  1468.2 32211mCRBhadli, Maharashtra
18BSLBhusaval Junction (8)  21:50--11480.9-208mCRBhusaval 425201, Maharashtra
Scroll to Top
Scroll to Bottom